(259) Aletheia
ephemeris date magn radius delta ra dec elong phase
Opposition31 May 202511.42.727 AU1.715 AU16h38m-17°07'175.0°1.8°
Today18 Jul 202512.42.729 AU1.973 AU16h10m-19°32'129.0°16.8°
(259) Aletheia - 2025-07-18
astro.vanbuitenen.nl


 
-1 year
-1 month
-1 day
Now
+1 day
+1 month
+1 year

The interactive orbit chart above shows the body's path through the solar system and its position at the given date. Green and blue lines are shown perpendicular to the ecliptic plane: Green if the path is above the ecliptic plane, blue if it is below. (Left-click and drag to rotate the view; Right-click and drag to move the view; Use scroll wheel to zoom in our out.)

The orbital elements of Aletheia are:

            e (Eccentricity)                : 0.1299188
            a (Semimajor axis)              : 3.1334338
            i (Inclination)                 : 10.80855
            Ω (Longitude of ascending node) : 86.78079
            ω (Argument of perihelion)      : 166.37237
            M (Mean anomaly)                : 352.85984
            Epoch                           : 2025 May 05

            L (Longitude of perihelion)     : 73.38614
            B (Latitude of perihelion)      : 2.53236
            P (Orbital period in years)     : 5.55            
        

The light curve chart below shows the estimated development of the minor planet's magnitude.


The all-sky chart below shows the path of the minor planet over the same period as the light curve. The current position is marked yellow.





The following chart shows the path of the minor planet in the next few days. The field of view is optimized for (~10x50) binoculars and finderscopes. A more printer-friendly version of the same chart can be found below.




Ephemerides:
Date       Time       RA (2000)    DEC (2000)    delta   radius  elong  phase   PA    magn
2025-07-18 00:00 UT   16 10 25.7   -19 32 11     1.973    2.729  129.0   16.8   102   12.4 
2025-07-18 23:07 UT   16 10 22.3   -19 35 59     1.983    2.729  128.1   17.0   102   12.4 
2025-07-19 00:00 UT   16 10 22.2   -19 36 08     1.983    2.729  128.0   17.1   102   12.4 
2025-07-20 00:00 UT   16 10 20.4   -19 40 07     1.994    2.730  127.1   17.3   102   12.4 
2025-07-21 00:00 UT   16 10 20.1   -19 44 08     2.004    2.730  126.1   17.5   101   12.4 
2025-07-22 00:00 UT   16 10 21.3   -19 48 12     2.015    2.730  125.2   17.7   101   12.4 
2025-07-23 00:00 UT   16 10 24.2   -19 52 17     2.026    2.730  124.3   17.9   101   12.5 
2025-07-24 00:00 UT   16 10 28.6   -19 56 24     2.037    2.730  123.4   18.1   101   12.5 
2025-07-25 00:00 UT   16 10 34.5   -20 00 33     2.048    2.731  122.4   18.3   101   12.5 
2025-07-26 00:00 UT   16 10 42.0   -20 04 43     2.059    2.731  121.5   18.5   101   12.5 
2025-07-27 00:00 UT   16 10 51.0   -20 08 56     2.070    2.731  120.6   18.7   101   12.5 
2025-07-28 00:00 UT   16 11 01.6   -20 13 10     2.082    2.731  119.7   18.8   101   12.6 
2025-07-29 00:00 UT   16 11 13.7   -20 17 25     2.093    2.732  118.8   19.0   101   12.6 
2025-07-30 00:00 UT   16 11 27.4   -20 21 43     2.105    2.732  117.9   19.2   101   12.6 
2025-07-31 00:00 UT   16 11 42.5   -20 26 02     2.117    2.732  117.0   19.3   101   12.6 
2025-08-01 00:00 UT   16 11 59.1   -20 30 22     2.128    2.732  116.2   19.5   101   12.6 
2025-08-02 00:00 UT   16 12 17.3   -20 34 43     2.140    2.732  115.3   19.6   101   12.6 
2025-08-03 00:00 UT   16 12 36.9   -20 39 06     2.152    2.733  114.4   19.8   101   12.7 
2025-08-04 00:00 UT   16 12 57.9   -20 43 31     2.164    2.733  113.6   19.9   100   12.7 
2025-08-05 00:00 UT   16 13 20.4   -20 47 56     2.177    2.733  112.7   20.0   100   12.7 
2025-08-06 00:00 UT   16 13 44.4   -20 52 23     2.189    2.734  111.8   20.1   100   12.7 
2025-08-07 00:00 UT   16 14 09.7   -20 56 50     2.201    2.734  111.0   20.3   100   12.7 
2025-08-08 00:00 UT   16 14 36.5   -21 01 19     2.214    2.734  110.2   20.4   100   12.7 
2025-08-09 00:00 UT   16 15 04.6   -21 05 48     2.226    2.734  109.3   20.5   100   12.8 
2025-08-10 00:00 UT   16 15 34.1   -21 10 18     2.239    2.735  108.5   20.6   100   12.8 
2025-08-11 00:00 UT   16 16 05.0   -21 14 50     2.251    2.735  107.7   20.7   100   12.8 
2025-08-12 00:00 UT   16 16 37.3   -21 19 21     2.264    2.735  106.8   20.8   100   12.8 
2025-08-13 00:00 UT   16 17 10.8   -21 23 54     2.277    2.736  106.0   20.9   100   12.8 
2025-08-14 00:00 UT   16 17 45.7   -21 28 27     2.290    2.736  105.2   20.9   100   12.8 
2025-08-15 00:00 UT   16 18 21.9   -21 33 00     2.302    2.736  104.4   21.0   100   12.8 
2025-08-16 00:00 UT   16 18 59.4   -21 37 34     2.315    2.736  103.6   21.1   100   12.9 
2025-08-17 00:00 UT   16 19 38.2   -21 42 09     2.328    2.737  102.8   21.1   100   12.9 


    Terminology:
            
    delta:  distance between minor planet and earth in AU
    radius: distance between minor planet and sun in AU
    magn:   magnitude (brightness) estimate    
    ra:     right ascension in hours (24h = 360deg)
    dec:    declination in degrees
    elong:  elongation in degrees (angle sun-earth-minor planet)    
    phase:  phase angle in degrees (angle sun-minor planet-earth)        
    AU:     Astronomical Unit (mean distance between earth and sun: 149597870.7 km
    

Orbital elements provided by the MPC (Minor Planet Center).
Calculations by a modified version of AAPlus, a C# implementation of the AA+ project by PJ Naughter from the algorithms presented in the book "Astronomical Algorithms" by Jean Meeus.
NGC2000 dso catalog and star labels from VizieR as provided by the Strasbourg astronomical Data Center.
Tycho2 catalog from the ESO archive.